Presure
135 173 225 167 238 200 264 144 233 212 215 237 221 205 224 210 199 201 222 200 197 199 194 192 190 189 186 185 185 189 203 175 169 184 184 164 171 163 161 130 138 136 126 135 140
380 293 242 239 238 247 248 263 257 254 250 224 195 215 219 205 193 200 195 201 193 195 192 191 185 187 190 196 179 176 176 174 167 171 158 146 144 177 163 156 133 134 135 135 140
263 250 276 137 231 195 222 169 249 242 224 195 200 200 213 202 192 199 195 199 194 191 193 188 194 189 185 179 178 174 173 163 192 164 162 155 154 133 140 139 147 131 148 146 148
298 274 249 226 226 216 153 245 236 224 216 202 193 229 210 197 192 200 195 199 195 195 190 195 183 179 177 177 178 172 166 161 164 164 170 161 146 166 158 145 143 134 119 118 121
267 259 200 215 220 187 216 213 213 206 205 188 203 222 206 192 193 204 196 189 201 192 190 190 163 185 180 181 175 169 168 156 154 154 155 140 133 152 133 178 130 145 125 142 138
141 259 199 223 138 206 209 216 203 189 209 181 228 213 201 193 196 205 194 187 207 194 186 153 133 174 177 173 173 168 165 157 163 174 160 143 159 134 171 150 139 180 128 108 129
155 244 233 221 135 214 204 201 194 213 184 173 221 209 198 194 196 205 193 190 190 191 187 180 178 180 175 169 166 174 162 158 163 153 140 149 145 180 164 127 130 146 121 134 151
224 232 148 136 230 248 243 241 242 238 222 175 215 198 198 191 195 214 196 194 173 188 192 180 181 185 173 173 174 167 170 175 150 152 155 156 165 136 158 130 150 171 144 128 113
228 138 229 216 231 231 232 233 234 230 223 181 210 196 197 191 193 206 200 123 141 192 191 184 181 183 176 177 175 168 166 182 156 166 157 150 144 145 130 132 178 125 134 129 174
235 139 232 131 230 186 223 230 224 222 207 189 208 195 195 191 196 198 195 126 123 201 195 196 177 181 188 177 178 170 169 163 168 153 149 152 161 142 139 161 156 139 152 146 135
225 226 166 224 125 141 129 224 217 205 196 188 204 192 195 191 201 192 218 126 127 189 198 192 182 179 191 189 174 177 166 167 172 160 163 156 152 163 157 130 135 145 136 156 133
210 165 187 151 224 223 163 127 205 207 189 190 199 194 198 192 200 194 210 207 191 207 190 185 192 160 169 177 186 177 182 166 169 172 164 163 161 158 152 140 133 141 144 137 137
212 212 181 164 124 163 200 196 157 191 188 197 200 197 195 195 202 199 192 187 167 202 213 143 193 198 190 168 190 184 174 180 177 169 167 168 171 156 158 158 145 146 143 139 144
209 209 202 186 186 126 130 140 155 182 141 205 200 198 191 190 199 209 191 193 189 199 160 161 178 194 154 187 189 192 183 175 186 183 163 167 183 151 167 171 165 185 143 153 146
217 212 203 200 200 199 130 125 185 195 131 195 150 191 190 187 202 210 196 185 187 193 192 175 205 160 157 197 168 179 189 190 177 187 187 165 114 157 159 166 167 168 184 165 146
201 227 213 210 204 198 201 193 143 184 190 203 206 171 187 192 208 214 191 192 190 187 187 187 186 200 214 199 197 182 183 193 198 186 186 109 173 138 154 164 168 167 168 172 116
202 196 202 222 211 206 204 198 195 202 186 187 189 206 164 147 211 178 195 189 192 188 185 181 177 188 183 206 216 209 200 189 191 195 186 177 187 188 76 128 72 140 149 177 181
204 205 203 193 193 203 216 212 204 203 199 195 196 164 199 203 196 140 148 196 192 171 190 192 184 181 189 237 184 217 225 224 209 194 197 199 197 185 187 131 87 74 168 180 85
218 204 201 200 200 193 195 189 191 212 210 206 202 197 195 195 197 191 193 202 204 203 203 197 161 186 176 175 186 187 233 230 233 241 216 202 195 204 201 178 181 185 189 182 175
213 216 215 208 201 201 200 200 197 195 196 193 203 216 213 209 204 207 202 201 204 209 207 211 211 203 196 190 188 189 189 187 214 193 246 252 231 210 199 196 200 184 181 184 188
206 207 213 210 217 215 212 207 199 199 201 204 200 197 195 193 197 202 206 208 215 220 227 227 225 216 216 210 208 205 205 203 199 197 199 168 128 240 243 237 210 197 200 202 195
195 203 201 202 206 206 206 208 209 215 215 210 211 212 211 211 216 214 209 206 199 199 200 202 209 203 212 217 222 223 222 221 218 218 217 216 219 210 200 193 195 236 238 235 216
206 210 197 201 195 195 198 199 201 205 211 208 202 203 205 201 200 200 205 205 206 209 218 221 224 224 215 198 196 203 202 203 212 220 228 233 237 236 232 221 221 216 211 141 202
207 205 209 211 209 204 205 210 211 210 209 211 215 215 218 225 234 231 225 232 232 221 224 235 240 231 226 224 220 226 237 228 226 212 205 205 208 211 211 210 211 224 232 232 229
221 217 216 218 216 215 217 220 223 224 217 212 231 237 237 235 233 232 231 242 245 244 248 254 256 261 259 255 226 204 242 240 242 246 245 203 212 204 210 224 224 231 232 226 217
252 237 234 234 230 232 236 235 238 233 227 219 229 230 230 246 247 244 241 244 247 248 252 260 260 258 255 259 264 266 270 263 252 239 239 242 240 242 252 251 228 226 233 277 228
218 221 224 235 242 244 245 244 243 244 242 237 239 233 238 248 253 253 248 247 247 246 244 252 265 299 313 364 303 309 306 243 280 263 247 255 244 243 235 240 242 239 247 251 266
Wind_Speed
33 36 45 36 51 36 41 36 56 52 49 34 34 38 31 34 28 27 24 22 21 22 23 24 24 24 25 26 28 27 29 29 32 31 32 33 32 33 33 33 33 33 29 32 29
8 33 42 43 41 34 35 34 33 32 36 34 37 34 33 34 29 29 27 25 25 24 26 27 27 28 29 31 31 30 31 32 32 32 33 32 32 33 32 35 34 34 31 33 31
23 32 36 35 37 34 31 36 30 33 35 37 37 35 35 34 30 30 29 28 29 28 29 30 31 31 32 32 33 34 34 34 33 36 36 36 36 37 36 36 37 37 35 34 36
23 30 34 35 35 33 37 26 29 33 35 37 37 35 37 34 31 32 31 31 32 31 32 34 33 31 33 35 36 37 37 37 36 37 38 39 38 42 44 40 39 39 38 35 36
24 29 31 34 33 33 32 34 33 35 37 37 36 37 38 34 34 34 34 34 35 34 34 34 32 35 35 36 38 40 39 39 38 38 38 43 41 40 42 33 43 39 41 41 43
34 28 31 34 30 34 34 34 36 35 36 37 37 38 38 36 36 37 36 37 38 36 37 33 32 38 39 39 40 43 43 42 41 41 42 44 42 46 53 40 46 46 43 37 44
34 27 32 33 29 36 38 38 37 36 38 39 39 40 39 38 38 39 39 40 41 40 41 41 41 43 41 42 43 46 46 46 47 47 46 47 46 43 52 46 49 46 46 47 48
21 23 27 31 30 32 33 33 32 33 35 40 40 38 41 39 41 44 42 42 40 44 46 44 46 48 46 49 49 47 47 49 51 50 48 50 48 53 50 50 50 50 49 50 45
23 35 27 32 31 31 32 32 32 35 38 40 41 41 42 40 44 44 44 33 38 48 49 50 48 51 51 54 51 49 49 54 53 54 51 53 54 54 56 57 54 53 52 54 57
23 38 27 30 29 29 33 33 36 37 41 40 43 43 45 45 46 45 46 39 39 52 53 53 47 54 60 53 55 51 57 56 59 56 53 56 61 55 58 59 60 60 60 58 57
27 27 35 30 32 37 34 36 38 41 41 43 43 45 47 48 48 48 53 43 43 53 56 53 54 61 60 59 59 57 57 60 67 58 56 61 65 63 60 66 65 63 63 62 59
33 36 36 35 33 35 37 35 40 41 43 45 46 48 50 50 50 51 52 54 53 59 52 55 58 54 53 58 64 61 63 65 68 65 57 65 67 69 66 69 68 67 67 61 62
35 35 37 39 39 37 39 41 39 44 45 47 49 51 52 52 52 55 56 55 56 60 65 51 61 69 67 57 66 69 62 70 70 70 61 64 66 74 78 72 72 72 70 65 67
38 38 39 39 41 44 43 40 41 45 40 49 51 53 54 53 56 57 59 58 60 62 54 54 63 69 57 66 70 68 75 68 74 77 67 64 70 77 85 83 75 76 74 74 69
37 39 42 43 43 44 45 44 48 49 45 53 46 53 56 58 60 59 62 61 63 63 62 61 70 63 62 78 65 66 78 82 74 79 77 72 38 85 85 86 83 78 83 80 76
43 36 42 43 45 47 48 50 48 52 53 54 55 55 61 63 62 62 64 65 67 67 66 68 65 71 80 79 82 75 76 84 86 82 76 34 83 58 90 83 87 84 85 86 61
47 46 45 41 45 48 50 52 53 54 55 58 61 63 57 50 64 59 69 71 72 69 70 70 71 73 75 82 87 91 89 84 84 86 80 88 93 88 16 60 19 66 79 94 94
48 49 49 51 52 50 50 52 54 57 59 60 63 61 65 68 67 58 61 77 75 67 73 75 75 79 80 82 82 91 94 97 96 91 91 92 94 89 92 62 34 28 92 93 48
51 53 53 54 55 57 56 59 60 57 59 61 64 66 68 70 73 73 76 80 81 82 82 81 69 82 80 81 86 86 89 96 103 103 102 93 91 96 97 89 92 95 97 100 98
52 52 54 57 60 60 61 63 64 64 64 66 65 62 67 71 75 78 82 82 85 88 88 89 83 88 90 92 91 94 94 96 99 95 104 100 102 102 97 97 98 96 99 101 103
59 59 57 58 56 59 63 67 68 68 68 69 71 72 74 77 79 80 80 83 85 89 92 94 93 85 91 94 97 102 102 103 104 103 100 83 53 97 103 106 104 102 104 107 109
59 64 61 61 63 66 67 68 70 71 71 73 74 75 78 80 82 85 89 91 90 95 96 97 96 89 89 94 103 104 107 107 110 107 108 107 107 99 100 100 101 107 108 111 114
69 70 65 68 67 68 71 71 72 74 76 74 74 77 81 83 85 86 90 93 96 97 100 102 105 104 97 99 102 104 106 108 111 113 111 115 115 108 107 108 110 111 112 67 110
73 72 74 77 77 75 76 80 82 83 82 83 86 88 91 93 94 94 95 98 100 103 105 105 105 109 106 105 107 111 114 115 118 117 111 111 112 110 108 108 109 112 115 118 118
78 77 78 81 81 83 84 86 87 89 89 89 90 92 93 94 94 96 98 100 102 104 106 106 105 106 107 109 100 87 113 116 120 122 124 114 118 116 117 121 119 120 120 117 116
71 75 75 77 78 82 83 84 84 87 88 88 92 93 94 96 95 97 101 105 105 109 112 112 109 110 106 112 116 116 112 116 120 123 126 126 125 126 124 126 122 121 121 120 123
65 69 71 71 72 72 74 79 82 83 84 88 90 92 95 96 96 98 101 105 106 107 110 110 111 110 102 94 110 108 109 100 119 122 126 128 130 128 128 129 125 126 123 119 117
Wind_Direction
256 252 245 257 249 253 243 263 254 258 258 243 242 245 239 242 246 245 229 233 226 226 222 219 214 211 208 205 200 202 192 198 201 199 200 211 212 215 217 223 225 225 229 231 231
182 217 236 239 245 241 242 236 240 241 242 235 243 241 232 239 242 241 236 230 228 225 223 220 220 215 211 210 206 205 202 203 209 209 216 219 219 212 214 225 227 227 233 233 236
215 228 209 263 245 251 250 258 232 235 230 238 237 239 229 237 238 237 234 229 225 227 224 222 221 215 214 214 213 210 206 214 200 215 218 222 223 224 227 230 231 233 232 242 248
184 199 218 236 238 244 262 229 227 224 227 232 238 223 228 236 239 234 233 229 226 225 225 223 220 221 221 219 219 216 219 219 218 219 220 224 226 232 235 233 232 233 237 239 242
201 207 237 235 234 252 237 231 229 229 230 238 232 221 228 237 238 233 230 231 227 226 227 225 235 223 224 225 225 224 223 228 228 229 228 233 233 233 236 230 236 237 238 247 247
255 205 238 231 268 236 235 231 232 239 231 243 220 223 228 236 236 233 232 232 227 226 227 240 254 228 228 228 228 229 229 230 228 227 227 232 231 238 243 238 240 239 243 245 243
251 216 225 233 265 236 235 234 235 235 239 246 221 225 231 236 236 233 235 234 233 228 228 230 231 231 231 232 229 230 230 232 233 234 234 237 235 222 249 241 244 244 247 244 259
233 227 262 267 229 222 225 226 223 221 223 246 223 234 232 237 237 231 236 234 239 231 228 232 233 234 233 233 234 234 236 237 237 237 238 242 244 240 244 241 243 243 248 246 249
232 261 225 233 225 225 224 222 221 218 221 244 225 234 235 238 238 237 237 262 254 234 233 234 235 235 236 236 237 236 239 236 238 240 240 241 240 243 246 248 246 250 251 250 253
229 260 226 268 226 245 227 222 222 221 228 238 226 234 236 238 237 239 239 260 262 235 236 234 242 240 239 239 241 239 241 241 241 242 242 243 250 239 250 255 249 247 253 250 250
234 232 254 228 271 264 273 224 224 230 234 241 229 238 236 240 238 237 239 261 261 242 238 237 241 244 244 242 243 242 243 244 245 243 245 247 250 248 247 252 250 247 251 251 254
239 253 245 258 231 228 254 272 231 230 239 242 236 240 237 239 240 239 240 241 245 242 242 245 241 255 250 248 246 245 245 247 250 247 245 249 253 255 244 245 255 252 252 255 257
238 236 246 251 265 251 236 237 254 239 242 239 239 240 242 243 241 242 241 244 251 246 242 262 244 248 247 252 249 247 246 248 248 251 246 250 249 258 257 250 248 254 254 256 258
242 240 240 245 244 263 260 260 255 246 263 239 240 243 247 249 245 242 245 245 247 248 257 256 252 249 260 250 249 251 250 249 253 252 250 247 246 256 259 258 253 257 258 259 255
245 243 244 244 243 242 264 267 245 243 268 246 260 249 251 251 247 246 244 252 251 251 251 252 246 262 263 253 258 247 253 253 250 253 250 253 275 252 256 260 260 260 263 257 259
247 245 247 244 245 245 245 247 260 249 248 248 248 254 248 250 250 251 253 251 252 253 254 254 254 254 251 252 253 253 250 252 253 251 252 252 250 248 255 254 262 262 262 263 260
248 247 248 248 248 248 248 249 250 249 254 254 255 251 256 259 250 254 252 253 252 253 255 256 260 256 258 254 254 254 252 253 252 252 250 249 251 252 266 252 266 258 266 268 268
248 250 248 248 249 251 251 251 251 250 250 252 254 260 257 257 257 265 264 254 256 259 254 254 253 256 257 259 259 254 257 256 254 252 251 251 251 252 252 258 272 284 261 263 279
250 249 249 249 250 249 250 252 252 254 254 253 253 256 259 261 262 262 260 259 259 258 257 255 262 258 261 263 263 262 260 258 260 258 254 253 254 254 254 256 255 256 259 261 261
251 250 251 252 253 253 253 253 253 254 254 255 256 256 257 257 258 260 262 262 263 264 263 261 256 258 259 263 264 262 261 264 262 264 261 260 258 258 257 257 256 256 258 259 260
256 255 252 252 252 252 254 256 258 259 260 259 259 258 258 257 259 260 260 261 263 263 263 263 263 261 262 264 262 262 263 263 263 265 265 262 264 260 262 261 258 256 256 256 257
262 261 261 261 259 260 261 261 263 262 261 262 263 263 263 264 264 264 264 264 262 264 265 265 263 260 260 262 264 265 265 264 264 263 264 264 264 261 261 261 262 261 261 260 259
259 258 262 263 262 263 264 266 267 267 267 266 266 266 266 266 265 265 266 266 266 265 265 266 267 267 263 260 262 264 265 265 267 266 266 266 266 265 263 261 262 263 263 264 261
257 259 260 261 263 265 267 268 269 270 271 271 271 270 270 270 271 270 269 270 270 269 269 269 268 268 267 263 263 264 265 265 266 267 268 268 269 268 266 264 262 262 263 264 264
255 259 261 262 265 266 267 269 269 270 271 272 273 273 273 273 274 274 274 275 274 272 272 271 269 268 267 266 265 266 263 264 265 266 266 268 268 269 269 267 266 266 266 265 263
257 260 263 265 267 268 269 270 271 271 271 272 274 274 274 276 276 276 276 277 276 276 276 276 275 273 271 270 268 266 264 262 262 265 266 266 266 266 265 265 267 267 266 264 266
260 262 264 266 268 269 269 270 271 272 273 274 275 276 276 277 278 278 276 275 275 276 277 278 278 277 275 274 272 271 268 265 263 262 264 263 264 265 267 265 264 265 265 265 264